Location: ?ejeti?ky
(50.4060°N, 14.9016°E)
Time: 06:33:03
(UTC+00:00)

Envisat - Visible Passes

Search period start: 02 December 2021 00:00
Search period end: 12 December 2021 00:00
Orbit: 764 x 766 km, 98.2° (Epoch: 01 December)

Date Brightness Start Highest point End Pass type
(mag) Time Alt. Az. Time Alt. Az. Time Alt. Az.
02 Dec 4.5 03:27:22 10° NNE 03:32:02 35° E 03:36:41 10° SSE visible
02 Dec 3.4 05:06:25 10° N 05:11:05 38° WNW 05:15:44 10° SW visible
02 Dec 5.9 16:27:37 10° SW 16:31:01 18° W 16:34:27 10° NW visible
03 Dec 5.5 02:51:20 10° NE 02:54:49 18° E 02:58:15 10° SE visible
03 Dec 2.9 04:29:18 10° N 04:34:23 73° WNW 04:39:26 10° SSW visible
03 Dec 4.8 15:49:10 10° SSW 15:53:47 35° W 15:58:27 10° NNW visible
04 Dec 3.6 03:52:27 10° NNE 03:57:29 58° E 04:02:28 10° S visible
04 Dec 4.0 05:32:05 10° N 05:36:10 25° WNW 05:40:14 10° WSW visible
04 Dec 6.3 16:55:36 10° W 16:56:43 11° W 16:57:51 10° WNW visible
05 Dec 4.8 03:15:58 10° NNE 03:20:23 29° E 03:24:47 10° SSE visible
05 Dec 3.2 04:54:45 10° N 04:59:36 46° WNW 05:04:25 10° SW visible
05 Dec 5.7 16:15:26 10° SW 16:19:20 22° W 16:23:15 10° NW visible
06 Dec 5.8 02:40:17 10° NE 02:43:06 15° E 02:45:54 10° ESE visible
06 Dec 2.9 04:17:42 10° NNE 04:22:50 88° WNW 04:27:55 10° SSW visible
06 Dec 4.4 05:58:00 10° NNW 06:01:10 17° NW 06:04:19 10° W visible
06 Dec 4.4 15:37:20 10° S 15:42:09 43° W 15:47:00 10° NNW visible
07 Dec 3.9 03:40:58 10° NNE 03:45:53 46° E 03:50:46 10° S visible
07 Dec 3.7 05:20:20 10° N 05:24:43 30° WNW 05:29:05 10° WSW visible
07 Dec 6.0 16:42:30 10° WSW 16:44:59 14° W 16:47:28 10° NW visible
08 Dec 5.2 03:04:38 10° NE 03:08:44 24° E 03:12:47 10° SE visible
08 Dec 3.0 04:43:06 10° N 04:48:05 56° WNW 04:53:02 10° SSW visible
08 Dec 5.3 16:03:23 10° SSW 16:07:40 27° W 16:11:58 10° NW visible
09 Dec 6.0 02:29:34 10° ENE 02:31:21 12° E 02:33:08 10° ESE visible
09 Dec 3.1 04:06:09 10° NNE 04:11:16 76° ESE 04:16:21 10° S visible
09 Dec 4.2 05:46:08 10° NNW 05:49:45 20° WNW 05:53:22 10° WSW visible
10 Dec 4.3 03:29:30 10° NNE 03:34:15 38° E 03:38:57 10° SSE visible
10 Dec 3.5 05:08:38 10° N 05:13:15 36° WNW 05:17:51 10° SW visible
10 Dec 5.9 16:30:01 10° SW 16:33:15 17° W 16:36:31 10° NW visible
11 Dec 5.4 02:53:24 10° NE 02:57:02 19° E 03:00:39 10° SE visible
11 Dec 2.9 04:31:29 10° N 04:36:33 69° WNW 04:41:36 10° SSW visible
11 Dec 4.6 06:12:19 10° NNW 06:14:42 13° NW 06:17:04 10° W visible
11 Dec 5.0 15:51:27 10° SSW 15:56:00 33° W 16:00:35 10° NNW visible
